Flag for U.S.A. Weather past 2 weeks in Aspen, Colorado, U.S.A.

Now
31 °F

Mostly cloudy.


Feels Like: 24 °F
Forecast: 23 / 32 °F
Wind: 7 mph from North

Location: Aspen-Pitkin County Airport

Current Time: Mar 3, 2015 at 2:24:51 PM

Latest Report: Mar 3, 2015 at 1:53 PM


Visibility: 10 mi

Pressure: 29.62 "Hg

Humidity: 61%

Dew point: 19 °F

Location of AspenLocation

Historic Weather in Aspen — Graph

°F

Aspen temperature yesterday

Maximum temperature yesterday: 45 °F (at 11:53 AM)
Minimum temperature yesterday: 28 °F (at 11:53 PM)
Average temperature yesterday: 35 °F

Past Weeks' High & Low Weather Summary

 TemperatureHumidityPressure
High51 °F (Feb 19, 2:53 PM)100% (Feb 23, 11:53 PM)30.33 "Hg (Feb 23, 11:53 PM)
Low3 °F (Feb 28, 6:53 AM)22% (Feb 18, 11:53 AM)29.46 "Hg (Mar 2, 4:53 PM)
Average25 °F74%29.95 "Hg
* Reported Feb 16 11:55 AM — Mar 3 11:53 AM, Aspen, Weather by CustomWeather, © 2015

Note: Actual official high and low records may vary slightly from our data, if they occured in-between our weather recording intervals... More about our weather records

Advertising

Aspen weather history for previous 24 hours

 ConditionsComfort  
Time TempWeatherWind HumidityBarometerVisibility
11:53 AM
Tue, Mar 3
32 °FScattered clouds.8 mph66%29.63 "Hg10 mi
10:53 AM30 °FScattered clouds.5 mph66%29.66 "Hg10 mi
9:53 AM31 °FScattered clouds.No wind67%29.67 "Hg10 mi
8:53 AM25 °FPassing clouds.No wind88%29.71 "Hg10 mi
7:53 AM21 °FScattered clouds.3 mph85%29.74 "Hg7 mi
6:53 AM20 °FOvercast.7 mph89%29.72 "Hg8 mi
5:53 AM19 °FPassing clouds.6 mph88%29.71 "Hg10 mi
4:53 AM19 °FPartly cloudy.3 mph88%29.67 "Hg10 mi
3:53 AM22 °FPassing clouds.3 mph85%29.63 "Hg10 mi
2:53 AM22 °FPassing clouds.No wind89%29.64 "Hg10 mi
1:53 AM24 °FPassing clouds.5 mph84%29.62 "Hg10 mi
12:53 AM26 °FMostly cloudy.No wind84%29.62 "Hg10 mi
11:53 PM
Mon, Mar 2
28 °FMostly cloudy.3 mph81%29.60 "Hg9 mi
10:53 PM30 °FMostly cloudy.7 mph75%29.58 "Hg10 mi
9:53 PM31 °FMostly cloudy.7 mph76%29.55 "Hg7 mi
9:01 PM31 °FLight snow. Ice fog.9 mph96%29.71 "Hg2 mi
7:53 PM31 °FLight snow. Ice fog.10 mph96%29.62 "Hg2 mi
6:53 PM33 °FLight snow. Fog.8 mph92%29.54 "Hg2 mi
5:53 PM37 °FLight rain. Overcast.3 mph79%29.52 "Hg10 mi
4:53 PM43 °FOvercast.10 mph49%29.46 "Hg10 mi
3:53 PM43 °FMostly cloudy.10 mph53%29.52 "Hg10 mi
2:53 PM42 °FMostly cloudy.16 mph55%29.56 "Hg10 mi
Weather by CustomWeather, © 2015

See weather overviewHow to use our weather pages